User: anonymous   Login
Location: Bush Observatory
(40.2653°N, 94.3194°W)
Time: 10:50:48
(UTC-05:00)
Language:

Cosmos 1933 Rocket - Orbit

View from above orbital plane
View from above orbital plane
View from above satellite
View from above satellite

Ground track
Ground track

The orbit data is extracted from the following two-line orbital elements,

1 18959U 88020B   14302.84407249  .00000567  00000-0  66833-4 0  3945
2 18959 082.5371 088.9241 0018254 070.1129 096.3308 14.82904212438087
Epoch (UTC): 29 October 2014 20:15:27
Eccentricity: 0.0018254
inclination: 82.5371°
perigee height: 607 km
apogee height: 633 km
right ascension of ascending node: 88.9241°
argument of perigee: 70.1129°
revolutions per day: 14.82904212
mean anomaly at epoch: 96.3308°
orbit number at epoch: 43808

The dashed part of the orbit path shows where the satellite is in the earth's shadow,  

DLR